Location: Apalco
(33.3585°N, 93.4602°W)
Time: 16:50:55
(UTC+00:00)

Envisat - Pass Details

Date: 05 October 2021
Orbit: 764 x 766 km, 98.2° (Epoch: 19 October)

Event Time Altitude Azimuth Distance (km) Brightness Sun altitude
Rises 11:08:32 0° 14° (NNE) 3,233 6.5 -13.9°
Reaches altitude 10° 11:10:51 10° 17° (NNE) 2,304 5.7 -13.4°
Maximum altitude 11:15:55 72° 102° (ESE) 805 3.3 -12.4°
Drops below altitude 10° 11:20:57 10° 186° (S) 2,290 5.4 -11.3°
Sets 11:23:15 0° 188° (S) 3,212 6.1 -10.8°
